| time (UTC) | temp F | wind direction | speed knots | gust knots | rain 1hr in | rain 24hr in | rain mn in | humidity % | barometer mb |
| 20260503213626 | 66 | 236 | 7.8 | 11.3 | 0.00 | 0.00 | 0.00 | 41 | 1006.9 |
| 20260503213121 | 66 | 229 | 7.0 | 8.7 | 0.00 | 0.00 | 0.00 | 40 | 1006.8 |
| 20260503212619 | 65 | 214 | 11.3 | 15.6 | 0.00 | 0.00 | 0.00 | 40 | 1007.0 |
| 20260503212117 | 64 | 244 | 7.8 | 13.9 | 0.00 | 0.00 | 0.00 | 41 | 1006.9 |
| 20260503211614 | 64 | 226 | 7.0 | 11.3 | 0.00 | 0.00 | 0.00 | 42 | 1007.1 |
| 20260503211109 | 64 | 241 | 10.4 | 14.8 | 0.00 | 0.00 | 0.00 | 42 | 1007.1 |
| 20260503210606 | 64 | 150 | 12.2 | 19.1 | 0.00 | 0.00 | 0.00 | 42 | 1007.5 |
| 20260503205559 | 64 | 216 | 12.2 | 14.8 | 0.00 | 0.00 | 0.00 | 42 | 1007.3 |
| 20260503205055 | 64 | 214 | 10.4 | 17.4 | 0.00 | 0.00 | 0.00 | 42 | 1007.7 |
| 20260503204552 | 64 | 249 | 10.4 | 13.0 | 0.00 | 0.00 | 0.00 | 42 | 1007.6 |
| 20260503204049 | 65 | 235 | 12.2 | 15.6 | 0.00 | 0.00 | 0.00 | 41 | 1007.9 |
| 20260503203546 | 65 | 271 | 7.0 | 8.7 | 0.00 | 0.00 | 0.00 | 41 | 1007.7 |
| 20260503203043 | 65 | 214 | 13.0 | 20.9 | 0.00 | 0.00 | 0.00 | 42 | 1007.7 |
| 20260503202541 | 65 | 208 | 7.8 | 11.3 | 0.00 | 0.00 | 0.00 | 41 | 1007.9 |
| 20260503202039 | 66 | 229 | 9.6 | 13.9 | 0.00 | 0.00 | 0.00 | 41 | 1008.0 |
| 20260503201537 | 65 | 217 | 9.6 | 19.1 | 0.00 | 0.00 | 0.00 | 41 | 1007.8 |
| 20260503201034 | 65 | 254 | 5.2 | 7.0 | 0.00 | 0.00 | 0.00 | 41 | 1008.1 |
| 20260503200530 | 66 | 24 | 6.1 | 7.8 | 0.00 | 0.00 | 0.00 | 41 | 1008.0 |
| 20260503200026 | 64 | 239 | 10.4 | 14.8 | 0.00 | 0.00 | 0.00 | 42 | 1007.9 |
| 20260503195524 | 63 | 291 | 6.1 | 7.8 | 0.00 | 0.00 | 0.00 | 47 | 1008.1 |
| 20260503195020 | 63 | 230 | 11.3 | 18.2 | 0.00 | 0.00 | 0.00 | 48 | 1008.3 |
| 20260503194518 | 63 | 216 | 8.7 | 11.3 | 0.00 | 0.00 | 0.00 | 49 | 1008.3 |
| 20260503194017 | 62 | 219 | 7.0 | 8.7 | 0.00 | 0.00 | 0.00 | 50 | 1008.4 |
| 20260503193514 | 61 | 235 | 9.6 | 13.0 | 0.00 | 0.00 | 0.00 | 51 | 1008.4 |
| 20260503193010 | 61 | 242 | 6.1 | 8.7 | 0.00 | 0.00 | 0.00 | 50 | 1008.7 |
| 20260503192506 | 61 | 235 | 5.2 | 7.0 | 0.00 | 0.00 | 0.00 | 50 | 1008.6 |
| 20260503192001 | 60 | 205 | 7.8 | 9.6 | 0.00 | 0.00 | 0.00 | 50 | 1008.6 |
| 20260503191459 | 60 | 206 | 6.1 | 9.6 | 0.00 | 0.00 | 0.00 | 51 | 1008.8 |
| 20260503190955 | 59 | 204 | 7.8 | 9.6 | 0.00 | 0.00 | 0.00 | 52 | 1009.0 |
| 20260503190453 | 59 | 257 | 7.8 | 9.6 | 0.00 | 0.00 | 0.00 | 53 | 1009.0 |
| 20260503185950 | 58 | 237 | 4.3 | 5.2 | 0.00 | 0.00 | 0.00 | 53 | 1009.3 |
| 20260503185446 | 57 | 231 | 7.0 | 8.7 | 0.00 | 0.00 | 0.00 | 55 | 1009.3 |
| 20260503184946 | 56 | 245 | 5.2 | 6.1 | 0.00 | 0.00 | 0.00 | 57 | 1009.4 |
| 20260503184442 | 56 | 167 | 9.6 | 13.9 | 0.00 | 0.00 | 0.00 | 58 | 1009.3 |
| 20260503183938 | 55 | 218 | 7.0 | 9.6 | 0.00 | 0.00 | 0.00 | 59 | 1009.6 |
| 20260503183435 | 55 | 178 | 4.3 | 7.0 | 0.00 | 0.00 | 0.00 | 60 | 1009.8 |
| 20260503182932 | 55 | 250 | 8.7 | 11.3 | 0.00 | 0.00 | 0.00 | 60 | 1009.8 |
| 20260503182431 | 55 | 214 | 7.8 | 9.6 | 0.00 | 0.00 | 0.00 | 61 | 1009.9 |
| 20260503181928 | 55 | 201 | 7.0 | 12.2 | 0.00 | 0.00 | 0.00 | 60 | 1010.1 |
| 20260503181425 | 54 | 181 | 6.1 | 11.3 | 0.00 | 0.00 | 0.00 | 61 | 1010.1 |
| 20260503180921 | 54 | 233 | 6.1 | 7.8 | 0.00 | 0.00 | 0.00 | 61 | 1010.6 |
| 20260503180420 | 54 | 217 | 8.7 | 11.3 | 0.00 | 0.00 | 0.00 | 61 | 1011.1 |
| 20260503175916 | 55 | 206 | 7.8 | 11.3 | 0.00 | 0.00 | 0.00 | 62 | 1011.5 |
| 20260503175414 | 55 | 238 | 4.3 | 7.0 | 0.00 | 0.00 | 0.00 | 62 | 1011.5 |
| 20260503174909 | 55 | 211 | 5.2 | 7.0 | 0.00 | 0.00 | 0.00 | 62 | 1011.7 |
| 20260503174408 | 55 | 262 | 5.2 | 7.8 | 0.00 | 0.00 | 0.00 | 63 | 1011.8 |
| 20260503173902 | 54 | 201 | 5.2 | 7.0 | 0.00 | 0.00 | 0.00 | 64 | 1011.9 |
| 20260503173359 | 54 | 247 | 4.3 | 8.7 | 0.00 | 0.00 | 0.00 | 65 | 1012.0 |
| 20260503172855 | 53 | 236 | 6.1 | 7.8 | 0.00 | 0.00 | 0.00 | 66 | 1012.2 |
| 20260503172353 | 53 | 225 | 5.2 | 9.6 | 0.00 | 0.00 | 0.00 | 67 | 1012.2 |
| 20260503171849 | 52 | 194 | 9.6 | 12.2 | 0.00 | 0.00 | 0.00 | 68 | 1012.4 |
| 20260503171346 | 52 | 228 | 4.3 | 7.8 | 0.00 | 0.00 | 0.00 | 70 | 1012.6 |
| 20260503170843 | 52 | 206 | 4.3 | 6.1 | 0.00 | 0.00 | 0.00 | 71 | 1012.5 |
| 20260503170340 | 51 | 192 | 7.0 | 11.3 | 0.00 | 0.00 | 0.00 | 72 | 1012.6 |
| 20260503150732 | 55 | 245 | 4.3 | 7.0 | 0.00 | 0.00 | 0.00 | 55 | 1013.1 |
| 20260503150228 | 54 | 244 | 2.6 | 2.6 | 0.00 | 0.00 | 0.00 | 55 | 1013.2 |
| 20260503140153 | 53 | 261 | 6.1 | 7.8 | 0.00 | 0.00 | 0.00 | 55 | 1013.9 |
| 20260503131122 | 51 | 252 | 7.0 | 8.7 | 0.00 | 0.00 | 0.00 | 54 | 1014.1 |
| 20260503130620 | 51 | 257 | 8.7 | 9.6 | 0.00 | 0.00 | 0.00 | 54 | 1013.9 |
| 20260503130117 | 51 | 221 | 6.1 | 7.0 | 0.00 | 0.00 | 0.00 | 54 | 1014.0 |
| 20260503110510 | 48 | 226 | 8.7 | 11.3 | 0.00 | 0.00 | 0.00 | 57 | 1013.9 |
| 20260503090401 | 47 | 234 | 4.3 | 7.8 | 0.00 | 0.00 | 0.00 | 56 | 1014.2 |
| 20260503081328 | 47 | 242 | 3.5 | 5.2 | 0.00 | 0.00 | 0.00 | 54 | 1014.5 |
| 20260503080825 | 47 | 223 | 1.7 | 1.7 | 0.00 | 0.00 | 0.00 | 54 | 1014.4 |
| 20260503080322 | 48 | 236 | 3.5 | 5.2 | 0.00 | 0.00 | 0.00 | 54 | 1014.2 |
| 20260503072759 | 48 | 242 | 3.5 | 4.3 | 0.00 | 0.00 | 0.00 | 52 | 1014.5 |
| 20260503072256 | 48 | 217 | 2.6 | 4.3 | 0.00 | 0.00 | 0.00 | 52 | 1014.6 |
| 20260503071752 | 48 | 225 | 3.5 | 4.3 | 0.00 | 0.00 | 0.00 | 52 | 1014.5 |
| 20260503071249 | 48 | 239 | 2.6 | 2.6 | 0.00 | 0.00 | 0.00 | 52 | 1014.4 |
| 20260503070745 | 48 | 238 | 0.9 | 1.7 | 0.00 | 0.00 | 0.00 | 51 | 1014.6 |
| 20260503070244 | 48 | 233 | 2.6 | 2.6 | 0.00 | 0.00 | 0.00 | 51 | 1014.4 |
| 20260503060208 | 48 | 229 | 1.7 | 1.7 | 0.00 | 0.00 | 0.00 | 53 | 1015.0 |
| 20260503054655 | 48 | 222 | 3.5 | 4.3 | 0.00 | 0.00 | 0.00 | 53 | 1015.4 |
| 20260503054152 | 48 | 237 | 2.6 | 4.3 | 0.00 | 0.00 | 0.00 | 53 | 1015.3 |
| 20260503053650 | 48 | 253 | 2.6 | 4.3 | 0.00 | 0.00 | 0.00 | 53 | 1015.1 |
| 20260503053149 | 48 | 230 | 2.6 | 2.6 | 0.00 | 0.00 | 0.00 | 53 | 1015.3 |
| 20260503052645 | 48 | 230 | 2.6 | 2.6 | 0.00 | 0.00 | 0.00 | 53 | 1015.3 |
| 20260503052141 | 48 | 232 | 0.9 | 1.7 | 0.00 | 0.00 | 0.00 | 53 | 1015.4 |
| 20260503051636 | 48 | 241 | 0.9 | 0.9 | 0.00 | 0.00 | 0.00 | 53 | 1015.4 |
| 20260503051135 | 49 | 230 | 0.9 | 1.7 | 0.00 | 0.00 | 0.00 | 53 | 1015.4 |
| 20260503050631 | 49 | 233 | 1.7 | 1.7 | 0.00 | 0.00 | 0.00 | 52 | 1015.5 |
| 20260503050128 | 49 | 205 | 2.6 | 4.3 | 0.00 | 0.00 | 0.00 | 52 | 1015.6 |
| 20260503045625 | 49 | 218 | 1.7 | 1.7 | 0.00 | 0.00 | 0.00 | 52 | 1015.6 |
| 20260503045122 | 49 | 212 | 1.7 | 2.6 | 0.00 | 0.00 | 0.00 | 51 | 1015.6 |
| 20260503044619 | 49 | 230 | 3.5 | 4.3 | 0.00 | 0.00 | 0.00 | 52 | 1015.5 |
| 20260503044117 | 49 | 224 | 2.6 | 2.6 | 0.00 | 0.00 | 0.00 | 51 | 1015.8 |
| 20260503043613 | 49 | 232 | 1.7 | 1.7 | 0.00 | 0.00 | 0.00 | 51 | 1015.5 |
| 20260503043110 | 49 | 227 | 1.7 | 2.6 | 0.00 | 0.00 | 0.00 | 51 | 1015.5 |
| 20260503042606 | 49 | 214 | 1.7 | 2.6 | 0.00 | 0.00 | 0.00 | 51 | 1015.3 |
| 20260503042102 | 49 | 230 | 2.6 | 2.6 | 0.00 | 0.00 | 0.00 | 51 | 1015.5 |
| 20260503041559 | 50 | 207 | 1.7 | 1.7 | 0.00 | 0.00 | 0.00 | 51 | 1015.8 |
| 20260503041057 | 50 | 236 | 0.9 | 1.7 | 0.00 | 0.00 | 0.00 | 51 | 1015.6 |
| 20260503040554 | 50 | 228 | 0.9 | 1.7 | 0.00 | 0.00 | 0.00 | 51 | 1015.5 |
| 20260503040051 | 50 | 237 | 0.9 | 0.9 | 0.00 | 0.00 | 0.00 | 50 | 1015.6 |
| 20260503035548 | 50 | 214 | 0.9 | 1.7 | 0.00 | 0.00 | 0.00 | 50 | 1015.8 |
| 20260503035046 | 50 | 227 | 2.6 | 2.6 | 0.00 | 0.00 | 0.00 | 50 | 1015.6 |
| 20260503034542 | 50 | 235 | 1.7 | 2.6 | 0.00 | 0.00 | 0.00 | 50 | 1015.7 |
| 20260503034040 | 50 | 226 | 1.7 | 2.6 | 0.00 | 0.00 | 0.00 | 50 | 1015.6 |
| 20260503033537 | 50 | 222 | 1.7 | 2.6 | 0.00 | 0.00 | 0.00 | 50 | 1015.8 |
| 20260503033035 | 50 | 234 | 2.6 | 2.6 | 0.00 | 0.00 | 0.00 | 49 | 1015.6 |
| 20260503032533 | 50 | 208 | 2.6 | 2.6 | 0.00 | 0.00 | 0.00 | 50 | 1015.7 |
| 20260503032031 | 50 | 236 | 0.9 | 1.7 | 0.00 | 0.00 | 0.00 | 49 | 1015.9 |
| 20260503031528 | 50 | 237 | 0.9 | 0.9 | 0.00 | 0.00 | 0.00 | 49 | 1015.8 |
| 20260503031025 | 50 | 246 | 1.7 | 1.7 | 0.00 | 0.00 | 0.00 | 49 | 1016.0 |
| 20260503030521 | 51 | 218 | 1.7 | 1.7 | 0.00 | 0.00 | 0.00 | 49 | 1016.0 |
| 20260503030019 | 51 | 222 | 1.7 | 1.7 | 0.00 | 0.00 | 0.00 | 49 | 1015.9 |
| 20260503025515 | 51 | 206 | 1.7 | 2.6 | 0.00 | 0.00 | 0.00 | 49 | 1016.0 |
| 20260503025013 | 51 | 204 | 2.6 | 2.6 | 0.00 | 0.00 | 0.00 | 49 | 1015.8 |
| 20260503024509 | 51 | 216 | 0.9 | 0.9 | 0.00 | 0.00 | 0.00 | 48 | 1016.2 |
| 20260503024006 | 51 | 225 | 0.9 | 1.7 | 0.00 | 0.00 | 0.00 | 48 | 1016.2 |
| 20260503023503 | 51 | 232 | 0.9 | 0.9 | 0.00 | 0.00 | 0.00 | 48 | 1015.9 |
| 20260503023000 | 51 | 222 | 1.7 | 1.7 | 0.00 | 0.00 | 0.00 | 48 | 1016.1 |
| 20260503022455 | 51 | 233 | 0.9 | 1.7 | 0.00 | 0.00 | 0.00 | 47 | 1016.1 |
| 20260503021951 | 51 | 233 | 2.6 | 4.3 | 0.00 | 0.00 | 0.00 | 47 | 1016.1 |
| 20260503021448 | 51 | 232 | 0.9 | 0.9 | 0.00 | 0.00 | 0.00 | 47 | 1015.8 |
| 20260503020945 | 51 | 218 | 1.7 | 1.7 | 0.00 | 0.00 | 0.00 | 47 | 1016.1 |
| 20260503020443 | 51 | 239 | 0.9 | 0.9 | 0.00 | 0.00 | 0.00 | 48 | 1015.8 |
| 20260503015939 | 51 | 239 | 0.9 | 0.9 | 0.00 | 0.00 | 0.00 | 47 | 1015.7 |
| 20260503015436 | 51 | 237 | 1.7 | 1.7 | 0.00 | 0.00 | 0.00 | 47 | 1015.8 |
| 20260503014932 | 51 | 235 | 0.9 | 0.9 | 0.00 | 0.00 | 0.00 | 49 | 1016.0 |
| 20260503014429 | 51 | 234 | 0.9 | 0.9 | 0.00 | 0.00 | 0.00 | 52 | 1015.8 |
| 20260503013927 | 51 | 231 | 0.9 | 0.9 | 0.00 | 0.00 | 0.00 | 55 | 1015.9 |
| 20260503013424 | 51 | 228 | 0.9 | 0.9 | 0.00 | 0.00 | 0.00 | 59 | 1015.8 |
| 20260503012921 | 51 | 227 | 0.9 | 0.9 | 0.00 | 0.00 | 0.00 | 59 | 1015.5 |
| 20260503012419 | 51 | 226 | 0.9 | 0.9 | 0.00 | 0.00 | 0.00 | 59 | 1015.8 |
| 20260503011915 | 51 | 226 | 0.0 | 0.9 | 0.00 | 0.00 | 0.00 | 59 | 1015.8 |
| 20260503011412 | 51 | 218 | 0.9 | 0.9 | 0.00 | 0.00 | 0.00 | 57 | 1015.6 |
| 20260503010909 | 51 | 205 | 1.7 | 1.7 | 0.00 | 0.00 | 0.00 | 58 | 1015.7 |
| 20260503010405 | 52 | 220 | 0.0 | 0.0 | 0.00 | 0.00 | 0.00 | 57 | 1015.9 |
| 20260503005902 | 51 | 210 | 1.7 | 1.7 | 0.00 | 0.00 | 0.00 | 56 | 1015.7 |
| 20260503005400 | 51 | 234 | 0.0 | 0.0 | 0.00 | 0.00 | 0.00 | 57 | 1015.8 |
| 20260503004856 | 52 | 235 | 0.0 | 0.0 | 0.00 | 0.00 | 0.00 | 55 | 1015.7 |
| 20260503004354 | 52 | 177 | 2.6 | 2.6 | 0.00 | 0.00 | 0.00 | 53 | 1015.6 |
| 20260503003851 | 52 | 207 | 0.9 | 0.9 | 0.00 | 0.00 | 0.00 | 53 | 1015.6 |
| 20260503003347 | 52 | 207 | 0.9 | 2.6 | 0.00 | 0.00 | 0.00 | 54 | 1015.7 |
| 20260503002844 | 52 | 213 | 0.0 | 0.0 | 0.00 | 0.00 | 0.00 | 53 | 1015.9 |
| 20260503002342 | 53 | 189 | 2.6 | 2.6 | 0.00 | 0.00 | 0.00 | 52 | 1015.8 |
| 20260503001838 | 53 | 175 | 3.5 | 4.3 | 0.00 | 0.00 | 0.00 | 51 | 1015.8 |
| 20260503001334 | 53 | 173 | 2.6 | 2.6 | 0.00 | 0.00 | 0.00 | 51 | 1015.8 |
| 20260503000832 | 53 | 161 | 0.9 | 0.9 | 0.00 | 0.00 | 0.00 | 51 | 1015.7 |
| 20260503000329 | 52 | 132 | 2.6 | 2.6 | 0.00 | 0.00 | 0.00 | 49 | 1015.9 |
| 20260502235826 | 52 | 182 | 5.2 | 6.1 | 0.00 | 0.00 | 0.00 | 53 | 1015.8 |
| 20260502235324 | 52 | 169 | 2.6 | 4.3 | 0.00 | 0.00 | 0.00 | 54 | 1015.8 |
| 20260502234820 | 52 | 141 | 1.7 | 2.6 | 0.00 | 0.00 | 0.00 | 53 | 1015.9 |
| 20260502234317 | 52 | 175 | 2.6 | 4.3 | 0.00 | 0.00 | 0.00 | 55 | 1016.0 |
| 20260502233814 | 52 | 186 | 0.9 | 1.7 | 0.00 | 0.00 | 0.00 | 53 | 1016.1 |
| 20260502233310 | 52 | 177 | 1.7 | 1.7 | 0.00 | 0.00 | 0.00 | 52 | 1015.9 |
| 20260502232807 | 52 | 188 | 1.7 | 1.7 | 0.00 | 0.00 | 0.00 | 51 | 1016.0 |
| 20260502232304 | 52 | 108 | 0.9 | 1.7 | 0.00 | 0.00 | 0.00 | 51 | 1016.2 |
| 20260502231800 | 52 | 186 | 0.9 | 1.7 | 0.00 | 0.00 | 0.00 | 51 | 1016.4 |
| 20260502231258 | 52 | 182 | 0.9 | 0.9 | 0.00 | 0.00 | 0.00 | 52 | 1016.3 |
| 20260502230756 | 52 | 178 | 0.0 | 0.9 | 0.00 | 0.00 | 0.00 | 50 | 1016.3 |
| 20260502230254 | 52 | 181 | 3.5 | 4.3 | 0.00 | 0.00 | 0.00 | 49 | 1016.4 |
| 20260502225750 | 53 | 179 | 3.5 | 5.2 | 0.00 | 0.00 | 0.00 | 47 | 1016.2 |
| 20260502225247 | 53 | 171 | 3.5 | 4.3 | 0.00 | 0.00 | 0.00 | 49 | 1016.4 |
| 20260502224743 | 53 | 165 | 3.5 | 4.3 | 0.00 | 0.00 | 0.00 | 49 | 1016.4 |
| 20260502224240 | 55 | 147 | 2.6 | 5.2 | 0.00 | 0.00 | 0.00 | 47 | 1016.4 |
| 20260502223738 | 53 | 161 | 2.6 | 4.3 | 0.00 | 0.00 | 0.00 | 49 | 1016.6 |
| 20260502223235 | 54 | 154 | 4.3 | 7.0 | 0.00 | 0.00 | 0.00 | 50 | 1016.3 |
| 20260502222733 | 53 | 224 | 0.9 | 1.7 | 0.00 | 0.00 | 0.00 | 46 | 1016.2 |
| 20260502222229 | 53 | 158 | 5.2 | 6.1 | 0.00 | 0.00 | 0.00 | 47 | 1016.5 |
| 20260502221725 | 52 | 166 | 2.6 | 4.3 | 0.00 | 0.00 | 0.00 | 49 | 1016.4 |
| 20260502221222 | 51 | 147 | 3.5 | 4.3 | 0.00 | 0.00 | 0.00 | 51 | 1016.4 |
| 20260502220719 | 51 | 189 | 1.7 | 1.7 | 0.00 | 0.00 | 0.00 | 50 | 1016.4 |
| 20260502220215 | 51 | 141 | 3.5 | 5.2 | 0.00 | 0.00 | 0.00 | 50 | 1016.6 |
| 20260502215712 | 52 | 251 | 0.9 | 1.7 | 0.00 | 0.00 | 0.00 | 50 | 1016.7 |
| 20260502215209 | 52 | 186 | 0.9 | 0.9 | 0.00 | 0.00 | 0.00 | 50 | 1016.4 |
| 20260502214706 | 51 | 207 | 1.7 | 2.6 | 0.00 | 0.00 | 0.00 | 50 | 1016.7 |
| 20260502214203 | 51 | 178 | 4.3 | 6.1 | 0.00 | 0.00 | 0.00 | 50 | 1017.0 |
| 20260502213700 | 52 | 151 | 7.0 | 8.7 | 0.00 | 0.00 | 0.00 | 49 | 1016.7 |